Погода Торгай

Погода Торгай : погода сейчас, прогноз погоды и архив. Всё, что Вы хотите узнать о погоде Торгай!

Хотите узнать прогноз погоды Торгай? Тогда Вам сюда: Погода Торгай

Поиск расширенной информации на нашем сайте:

Другие новости

Новости СМИ2

Главная страница сайта

Новости сайта

03.07.2017

Напоминаем, что на нашем специализированном сайте Метеоцентр.Азия вы можете получить высокодетализированные автоматические прогнозы погоды по пунктам России, СНГ и мира в авиационном формате (включающие направление и скорость ветра, видимость, явления погоды, количество и форму облачности, нижнюю и верхнюю границу облачности).


Погода Торгай - сегодня

Время (UTC), дата Ветер
(°,м/с) 
Видим.   Явления Облачность Т
(°С)
Тd
(°С)
f(%) Тe
(°С)
Pmin
(гПа)
dP
(гПа)
Po
(мм)
O2
(г/м3)
Тmin Tmax R s Состояние
почвы
06 18.07.18 070 (В) 10 км    ясно 
+29.9 +12 33 +34  1010.7  747  269  +19.6         
09 18.07.18 070 (В) 10 км    ясно 
+32.8 +11.1 27 +36  1010.1  -0.4  746  267           
12 18.07.18 070 (В) 10 км    ясно 
+33.5 +10.6 25 +36  1009.6  -0.6  746  266           
15 18.07.18 070 (В) 10 км    4/0 средняя 
[Ac lent]
+31.8 +11 28 +34  1008  -1.6  745  267           
18 18.07.18 070 (В) н/о    10/10 600 м 
[Sc]
+28.8 +10.2 31 +30  1006.4  -1.6  743  269    +34       
21 18.07.18 090 (В) н/о    10/10 600 м 
[Sc]
+26.9 +10.2 35 +29  1005.3  -1.3  743  271           
00 19.07.18 090 (В) 10 км    10/10 600 м 
[Sc]
+25 +10.5 40 +27  1006.9  1.5  744  273           
03 19.07.18 090 (В) 10 км    9/9 600 м 
[Sc]
+26.2 +10.7 38 +28  1006.4  -0.5  743  271           
06 19.07.18 140 (ЮВ) 10 км    6/6 1000 м 
[Sc]
+31.8 +12.5 31 +37  1005.8  -0.3  743  266  +25         
09 19.07.18 140 (ЮВ) 10 км    3/3 1000 м 
[Cu med, cong]
+36.4 +14.4 27 +44  1004.3  -1.2  742  261           
12 19.07.18 140 (ЮВ) 10 км    3/3 1000 м 
[Cu med, cong]
+37 +13.2 24 +43  1003.7  -0.6  742  261           
15 19.07.18 140 (ЮВ) 10 км    4/0 средняя 
[Ac lent]
+34.3 +14.9 31 +43  1003.3  -0.5  741  262    +37.3       
18 19.07.18 180 (Ю) н/о    3/0 средняя 
[Ac lent]
+29.4 +11.7 34 +33  1004.3  0.7  742  268    +37.3       
21 19.07.18 230 (ЮЗ) н/о    ясно 
+27.2 +12.4 40 +32  1004.7  0.3  742  270           
00 20.07.18 250 (З) 10 км    ясно 
+23.6 +13 51 +29  1005.6  0.7  743  273           
03 20.07.18 270 (З) 10 км    3/0 средняя 
[Ac lent]
+25.8 +14 48 +33  1005.6  0.1  743  271           
06 20.07.18 290 (З) 10 км    4/0 верхняя 
[Ci fib]
+31.6 +12.8 32 +37  1005  -0.3  742  266  +25         
09 20.07.18 320 (СЗ) 10 км    3/0 верхняя 
[Ci fib]
+35.2 +12.5 25 +40  1003.5  -1.3  741  262           
12 20.07.18 290 (З) 10 км    3/0 верхняя 
[Ci fib]
+37.2 +11.4 21 +41  1002.5  -0.9  741  261           
15 20.07.18 340 (С) 10 км    6/0 средняя 
[Ac lent]
+34.1 +13.6 29 +41  1002.3  -0.3  741  263    +37.4       
18 20.07.18 320 (СЗ) н/о    9/0 средняя 
[Ac lent]
+28.7 +11.9 35 +33  1002.9  0.3  741  268    +37.4       
21 20.07.18 320 (СЗ) н/о    9/0 средняя 
[Ac lent]
+26.4 +12 41 +31  1003.4  0.6  741  270           
00 21.07.18 320 (СЗ) 10 км    10/0 средняя 
[Ac lent]
+24.3 +14.6 55 +33  1003.8  0.3  741  271           
03 21.07.18 050 (СВ) 10 км    10/10 1000 м 
[Sc]
+23.2 +15.2 61 +33  1004.2  0.3  742  272           
06 21.07.18 340 (С) 10 км    4/0 средняя 
[Ac lent]
+30.4 +18.1 48 +45  1003.1  -0.8  741  265  +23.2         
Время (UTC), дата Ветер
(°,м/с) 
Видим.   Явления Облачность Т
(°С)
Тd
(°С)
f(%) Тe
(°С)
Pmin
(гПа)
dP
(гПа)
Po
(мм)
O2
(г/м3)
Тmin Tmax R s Состояние
почвы

Для получения пояснительной информации подведите курсор к названию столбца.

ПОГОДА Торгай - архив

Всё, что Вы хотите узнать о погоде Торгай - удобно и подробно!

Выберите нужную дату (начиная с 1 января 2015* года) и нажмите кнопку "Найти".
Будут отображены архивные сводки погоды по пункту Торгай, начиная с указанной даты.


Отображать данные в формате CSV (для использования в таблицах Excel)


Внимание! Наш архив погоды предназначен исключительно для личного некоммерческого использования в познавательных целях. Если Вам необходимы официальные справки о состоянии погоды (для производственных, юридических, коммерческих и т.п. целей), обращайтесь в органы Росгидромета.

*Примечание: данная дата относится к архиву по метеостанциям СССР (Россия, СНГ, Балтия).
Архив по метеостанциям Зарубежной Европы и Азии (кроме Китая) хранится 10 дней, по другим регионам земного шара (Китай, Африка, Америка, Австралия, Океания) - 1 день.

Торгай - район местоположения метеостанции


Название, широта, долгота, высота метеостанции:
Торгай 49.7°ш. 63.5°д. 123 м над ур. моря [Казахстан]

Дополнительная информация

В oтличие oт бoльшинства пoгoдных сайтoв мы публикуем пoдрoбную метеoинфoрмацию в детальнoм прoфессиoнальнoм фoрмате.

Характеристики температуры и влажнoсти вoздуха измеряются на высoте 2 м в тени вдали oт зданий и деревьев.
Скoрoсть ветра измеряется на высoте 10 м (на урoвне рoста челoвека скoрoсть ветра ниже в 1.5-2 раза). Если метеoстанция нахoдится в гoрoде или в лесу, тo скoрoсть ветра занижена на 2-4 м/с пo сравнению с oткрытым местoм. Скoрoсть ветра над акватoриями крупных рек и oзёр, а также на вершинах хoлмoв на 2-5 м/с выше, чем в oбычных услoвиях.
Атмoсфернoе давление в разных тoчках местнoсти мoжет значительнo oтличаться oт давления на метеoстанции, в зависимoсти oт услoвий рельефа (при пoдъёме на 10 м давление пoнижается примернo на 1 мм рт.ст.).